Tiempo cada hora Golczewo

Hoy, 25 Junio, Viernes

Tiempo Temperatura Precipitaciones Viento Presión Humedad
00:00 +15°C° 0 mm 1 mps 745 mmHg 97%
01:00 +15°C° 0 mm 1 mps 745 mmHg 97%
02:00 +15°C° 0 mm 2 mps 745 mmHg 97%
03:00 +15°C° 0 mm 2 mps 745 mmHg 97%
04:00 +14°C° 0 mm 3 mps 744 mmHg 97%
05:00 +16°C° 0 mm 3 mps 745 mmHg 91%
06:00 +17°C° 0 mm 3 mps 745 mmHg 85%
07:00 +18°C° 0 mm 4 mps 745 mmHg 79%
08:00 +19°C° 0 mm 3 mps 745 mmHg 72%
09:00 +20°C° 0 mm 3 mps 745 mmHg 65%
10:00 +21°C° 0 mm 3 mps 746 mmHg 58%
11:00 +21°C° 0.1 mm 3 mps 746 mmHg 58%
12:00 +21°C° 0.1 mm 2 mps 746 mmHg 59%
13:00 +21°C° 0.1 mm 2 mps 746 mmHg 60%
14:00 +20°C° 0.3 mm 2 mps 745 mmHg 67%
15:00 +19°C° 0.3 mm 2 mps 745 mmHg 74%
16:00 +18°C° 0.3 mm 3 mps 745 mmHg 81%
17:00 +18°C° 0 mm 2 mps 745 mmHg 82%
18:00 +18°C° 0 mm 2 mps 745 mmHg 83%
19:00 +17°C° 0 mm 2 mps 745 mmHg 83%
20:00 +16°C° 0 mm 2 mps 746 mmHg 87%
21:00 +15°C° 0 mm 2 mps 746 mmHg 91%
22:00 +14°C° 0 mm 2 mps 746 mmHg 94%
23:00 +14°C° 0 mm 2 mps 746 mmHg 95%

Mañana, 26 Junio, Sábado

Tiempo Temperatura Precipitaciones Viento Presión Humedad
00:00 +13°C° 0 mm 2 mps 746 mmHg 96%
01:00 +13°C° 0 mm 2 mps 746 mmHg 97%
02:00 +13°C° 0 mm 2 mps 746 mmHg 97%
03:00 +13°C° 0 mm 2 mps 746 mmHg 97%
04:00 +13°C° 0 mm 2 mps 746 mmHg 97%
05:00 +14°C° 0 mm 2 mps 747 mmHg 91%
06:00 +16°C° 0 mm 3 mps 747 mmHg 84%
07:00 +17°C° 0 mm 3 mps 747 mmHg 77%
08:00 +19°C° 0 mm 3 mps 747 mmHg 68%
09:00 +20°C° 0 mm 3 mps 747 mmHg 60%
10:00 +22°C° 0 mm 4 mps 747 mmHg 51%
11:00 +22°C° 0 mm 4 mps 747 mmHg 49%
12:00 +23°C° 0 mm 4 mps 747 mmHg 47%
13:00 +23°C° 0 mm 4 mps 747 mmHg 45%
14:00 +23°C° 0 mm 4 mps 747 mmHg 46%
15:00 +23°C° 0 mm 4 mps 747 mmHg 47%
16:00 +22°C° 0 mm 3 mps 747 mmHg 48%
17:00 +21°C° 0 mm 3 mps 747 mmHg 54%
18:00 +20°C° 0 mm 3 mps 747 mmHg 59%
19:00 +19°C° 0 mm 3 mps 747 mmHg 64%
20:00 +17°C° 0 mm 2 mps 747 mmHg 73%
21:00 +15°C° 0 mm 2 mps 747 mmHg 81%
22:00 +14°C° 0 mm 1 mps 747 mmHg 90%
23:00 +13°C° 0 mm 1 mps 747 mmHg 91%

Pasado mañana, 27 Junio, Domingo

Tiempo Temperatura Precipitaciones Viento Presión Humedad
00:00 +13°C° 0 mm 1 mps 747 mmHg 92%
01:00 +12°C° 0 mm 1 mps 747 mmHg 93%
02:00 +12°C° 0 mm 1 mps 747 mmHg 93%
03:00 +12°C° 0 mm 1 mps 747 mmHg 92%
04:00 +12°C° 0 mm 1 mps 747 mmHg 92%
05:00 +14°C° 0 mm 2 mps 747 mmHg 83%
06:00 +16°C° 0 mm 2 mps 747 mmHg 74%
07:00 +18°C° 0 mm 2 mps 747 mmHg 64%
08:00 +20°C° 0 mm 2 mps 747 mmHg 59%
09:00 +21°C° 0 mm 2 mps 747 mmHg 54%
10:00 +24°C° 0 mm 2 mps 747 mmHg 48%
11:00 +24°C° 0 mm 3 mps 747 mmHg 45%
12:00 +25°C° 0 mm 3 mps 747 mmHg 41%
13:00 +26°C° 0 mm 3 mps 747 mmHg 38%
14:00 +26°C° 0 mm 3 mps 747 mmHg 41%
15:00 +25°C° 0 mm 3 mps 747 mmHg 45%
16:00 +25°C° 0 mm 3 mps 747 mmHg 48%
17:00 +24°C° 0 mm 3 mps 747 mmHg 54%
18:00 +23°C° 0 mm 2 mps 747 mmHg 59%
19:00 +21°C° 0 mm 2 mps 747 mmHg 65%
20:00 +20°C° 0 mm 1 mps 747 mmHg 72%
21:00 +18°C° 0 mm 1 mps 747 mmHg 78%
22:00 +15°C° 0 mm 1 mps 747 mmHg 85%
23:00 +15°C° 0 mm 1 mps 747 mmHg 86%

28 Junio, Lunes

Tiempo Temperatura Precipitaciones Viento Presión Humedad
00:00 +14°C° 0 mm 0 mps 747 mmHg 87%
01:00 +13°C° 0 mm 0 mps 747 mmHg 88%
02:00 +14°C° 0 mm 1 mps 747 mmHg 87%
03:00 +14°C° 0 mm 1 mps 747 mmHg 86%
04:00 +14°C° 0 mm 1 mps 747 mmHg 85%
05:00 +16°C° 0 mm 1 mps 747 mmHg 76%
06:00 +19°C° 0 mm 1 mps 747 mmHg 68%
07:00 +21°C° 0 mm 1 mps 747 mmHg 60%
08:00 +23°C° 0 mm 2 mps 747 mmHg 54%
09:00 +24°C° 0 mm 2 mps 747 mmHg 49%
10:00 +26°C° 0 mm 2 mps 747 mmHg 43%
11:00 +27°C° 0 mm 2 mps 747 mmHg 41%
12:00 +28°C° 0 mm 2 mps 747 mmHg 38%
13:00 +28°C° 0 mm 2 mps 747 mmHg 36%
14:00 +28°C° 0 mm 2 mps 746 mmHg 37%
15:00 +28°C° 0 mm 2 mps 746 mmHg 37%
16:00 +28°C° 0 mm 3 mps 746 mmHg 38%
17:00 +27°C° 0 mm 2 mps 746 mmHg 46%
18:00 +25°C° 0 mm 2 mps 746 mmHg 55%
19:00 +23°C° 0 mm 2 mps 746 mmHg 63%
20:00 +21°C° 0 mm 2 mps 746 mmHg 69%
21:00 +19°C° 0 mm 2 mps 746 mmHg 75%
22:00 +18°C° 0 mm 2 mps 745 mmHg 81%
23:00 +17°C° 0 mm 2 mps 745 mmHg 82%

29 Junio, Martes

Tiempo Temperatura Precipitaciones Viento Presión Humedad
00:00 +18°C° 0 mm 1 mps 745 mmHg 82%
01:00 +18°C° 0 mm 1 mps 745 mmHg 83%
02:00 +18°C° 0 mm 1 mps 745 mmHg 83%
03:00 +18°C° 0 mm 1 mps 745 mmHg 83%
04:00 +18°C° 0 mm 1 mps 744 mmHg 83%
05:00 +19°C° 0 mm 2 mps 744 mmHg 74%
06:00 +21°C° 0 mm 2 mps 744 mmHg 65%
07:00 +25°C° 0 mm 2 mps 744 mmHg 56%
08:00 +26°C° 0 mm 3 mps 744 mmHg 51%
09:00 +27°C° 0 mm 3 mps 744 mmHg 45%
10:00 +29°C° 0 mm 3 mps 744 mmHg 40%
11:00 +29°C° 0 mm 3 mps 743 mmHg 40%
12:00 +30°C° 0 mm 3 mps 743 mmHg 40%
13:00 +30°C° 0 mm 3 mps 743 mmHg 40%
14:00 +29°C° 0.1 mm 3 mps 743 mmHg 46%
15:00 +28°C° 0.1 mm 2 mps 743 mmHg 52%
16:00 +27°C° 0.1 mm 2 mps 742 mmHg 57%
17:00 +26°C° 0.1 mm 2 mps 742 mmHg 62%
18:00 +25°C° 0.1 mm 1 mps 742 mmHg 66%
19:00 +25°C° 0.1 mm 1 mps 742 mmHg 70%
20:00 +24°C° 0 mm 1 mps 742 mmHg 72%
21:00 +23°C° 0 mm 1 mps 742 mmHg 74%
22:00 +21°C° 0 mm 1 mps 742 mmHg 77%
23:00 +19°C° 0.4 mm 2 mps 742 mmHg 81%

30 Junio, Miércoles

Tiempo Temperatura Precipitaciones Viento Presión Humedad
00:00 +18°C° 0.4 mm 2 mps 742 mmHg 85%
01:00 +17°C° 0.4 mm 2 mps 742 mmHg 89%
02:00 +17°C° 0.2 mm 2 mps 742 mmHg 88%
03:00 +17°C° 0.2 mm 2 mps 742 mmHg 87%
04:00 +16°C° 0.2 mm 1 mps 741 mmHg 87%
05:00 +17°C° 0 mm 2 mps 742 mmHg 80%
06:00 +19°C° 0 mm 2 mps 742 mmHg 73%
07:00 +20°C° 0 mm 3 mps 742 mmHg 66%
08:00 +21°C° 0 mm 3 mps 742 mmHg 59%
09:00 +24°C° 0 mm 3 mps 742 mmHg 52%
10:00 +25°C° 0 mm 4 mps 742 mmHg 45%
11:00 +26°C° 0 mm 4 mps 742 mmHg 45%
12:00 +26°C° 0 mm 4 mps 742 mmHg 45%
13:00 +27°C° 0 mm 4 mps 742 mmHg 44%
14:00 +26°C° 0 mm 5 mps 742 mmHg 47%
15:00 +25°C° 0 mm 5 mps 742 mmHg 50%
16:00 +23°C° 0 mm 5 mps 742 mmHg 53%
17:00 +22°C° 0 mm 4 mps 743 mmHg 55%
18:00 +21°C° 0 mm 4 mps 743 mmHg 57%
19:00 +19°C° 0 mm 3 mps 743 mmHg 60%
20:00 +17°C° 0 mm 3 mps 743 mmHg 69%
21:00 +16°C° 0 mm 2 mps 744 mmHg 79%
22:00 +14°C° 0 mm 2 mps 744 mmHg 89%
23:00 +14°C° 0 mm 2 mps 744 mmHg 91%
Mostrar más

Necesitamos Su Consentimiento

Meteoprog y nuestros Proveedores de Servicios pueden almacenar y acceder a sus datos personales como cookies, identificadores de dispositivo u otras tecnologías similares de su dispositivo y procesar dichos datos para personalizar contenido y anuncios, además de ofrecer funciones de redes sociales y analizar el tráfico.

  • Almacenar y/o acceder a información en su dispositivo

    Se puede almacenar o acceder a cookies, identificadores de dispositivo u otra información de su dispositivo para los fines anteriormente indicados.

  • Anuncios y contenido personalizados, medición de anuncios y contenido, percepciones del público, y desarrollo de productos

    Los anuncios y el contenido pueden personalizarse en base a su perfil. Se pueden añadir más datos para personalizar mejor los anuncios y contenidos. Se puede medir el rendimiento de los anuncios y contenidos. Se puede obtener la percepción sobre el público que ha visto los anuncios y contenidos. Dichos datos pueden usarse para desarrollar o mejorar la experiencia del usuario, sistemas y software.

Al hacer clic en ‘Estoy De Acuerdo’ usted permitirá el uso de las cookies, identificadores de dispositivo, balizas web u otras tecnologías similares indicadas. Su configuración puede cambiarse desde el navegador de su dispositivo.

Para ciertos fines, los intereses legítimos pueden ser considerados por encima del consentimiento. Puede leer más sobre ello en nuestra Política de Privacidad y Cookies.